This demonstration page uses our WeatherBlox Daily Observations layout. Learn more.

Left ArrowRight Arrow

36.17497, -115.13722

Hourly Observations for February 8, 2020

Temp ( °F °C ) Dew Point ( °F °C ) Humidity (%) Winds ( mph kmh ) Pressure ( in mb ) Visibility ( mi km ) Precip ( " mm )
12:53 am 00:53 Clear 47 8.3 25 -3.9 42 42 WNW 3 6 30.06 1018 10 16.0934 0 0
1:53 am 01:53 Clear 45 7.2 25 -3.9 46 46 NW 6 9 30.05 1018 10 16.0934 0 0
2:53 am 02:53 Clear 43 6.1 24 -4.4 47 47 WNW 6 9 30.04 1017 10 16.0934 0 0
3:53 am 03:53 Clear 43 6.1 23 -5 45 45 WNW 7 11 30.04 1017 10 16.0934 0 0
4:53 am 04:53 Clear 41 5 24 -4.4 51 51 WNW 3 6 30.04 1017 10 16.0934 0 0
5:53 am 05:53 Clear 41 5 25 -3.9 53 53 Calm 30.03 1017 10 16.0934 0 0
6:53 am 06:53 Sunny 40 4.4 24 -4.4 53 53 NW 3 6 30.05 1018 10 16.0934 0 0
7:53 am 07:53 Sunny 46 7.8 24 -4.4 42 42 Calm 30.05 1018 10 16.0934 0 0
8:53 am 08:53 Sunny 51 10.6 23 -5 33 33 Calm 30.04 1017 10 16.0934 0 0
9:53 am 09:53 Sunny 56 13.3 23 -5 28 28 ENE 5 7 30.02 1017 10 16.0934 0 0
10:53 am 10:53 Sunny 59 15 27 -2.8 29 29 ENE 5 7 30 1016 10 16.0934 0 0
11:53 am 11:53 Sunny 62 16.7 25 -3.9 24 24 E 6 9 29.95 1014 10 16.0934 0 0
12:53 pm 12:53 Sunny 64 17.8 23 -5 21 21 VRB 5 7 29.91 1013 10 16.0934 0 0
1:53 pm 13:53 Sunny 65 18.3 25 -3.9 22 22 ENE 5 7 29.87 1012 10 16.0934 0 0
2:53 pm 14:53 Sunny 65 18.3 25 -3.9 22 22 Calm 29.85 1011 10 16.0934 0 0
3:53 pm 15:53 Sunny 67 19.4 26 -3.3 21 21 NE 5 7 29.81 1010 10 16.0934 0 0
4:53 pm 16:53 Sunny 66 18.9 27 -2.8 23 23 N 6 9 29.8 1009 10 16.0934 0 0
5:53 pm 17:53 Clear 62 16.7 28 -2.2 28 28 NNW 6 9 29.8 1009 10 16.0934 0 0
6:53 pm 18:53 Clear 58 14.4 27 -2.8 31 31 N 5 7 29.8 1009 10 16.0934 0 0
7:53 pm 19:53 Clear 56 13.3 27 -2.8 33 33 WNW 3 6 29.77 1008 10 16.0934 0 0
8:53 pm 20:53 Clear 55 12.8 27 -2.8 34 34 Calm 29.75 1007 10 16.0934 0 0
9:53 pm 21:53 Clear 52 11.1 27 -2.8 38 38 WNW 5 7 29.73 1007 10 16.0934 0 0
10:53 pm 22:53 Clear 51 10.6 27 -2.8 39 39 NNW 5 7 29.74 1007 10 16.0934 0 0
11:53 pm 23:53 Clear 53 11.7 25 -3.9 34 34 N 12 19 29.75 1008 10 16.0934 0 0

Powered by AerisWeather